Weather History for KOPM - November, 2012

Change the Weather History Date:

Monday, November 12, 2012

  Actual Average Record
Temperature  
Mean Temperature 73 °F -  
Max Temperature 78 °F - - ()
Min Temperature 68 °F - - ()
Cooling Degree Days 8    
Growing Degree Days 23 (Base 50)    
Moisture  
Dew Point 57 °F    
Average Humidity 61    
Maximum Humidity 83    
Minimum Humidity 46    
Precipitation  
Precipitation 0.00 in - - ()
Sea Level Pressure  
Sea Level Pressure 30.23 in    
Wind  
Wind Speed 12 mph (North)    
Max Wind Speed 22 mph    
Max Gust Speed 36 mph    
Visibility 6 miles    
Events      
Averages and records for this station are not official NWS values.
T = Trace of Precipitation, MM = Missing Value Source: NWS Daily Summary

Daily Weather History Graph

Daily Weather History Graph

Search for Another Location

Airport or City:

Trip Planner

Search our weather history database for the weather conditions in past years. The results will help you decide how hot, cold, wet, or windy it might be!

Date:

Astronomy

Nov. 12, 2012 Rise Set
Actual Time 6:45 AM CST 5:38 PM CST
Civil Twilight 6:21 AM CST 6:02 PM CST
Nautical Twilight 5:53 AM CST 6:30 PM CST
Astronomical Twilight 5:25 AM CST 6:58 PM CST
Moon 5:17 AM CST (11/12) 4:41 PM CST (11/12)
Length of Visible Light 11h 41m
Length of Day
10h 52m
Waning Crescent, 2% of the Moon is Illuminated
Nov 12
Waning Crescent
Nov 13
New
Nov 20
First Quarter
Nov 28
Full
Dec 6
Last Quarter

Hourly Weather History & Observations

Time (CST) Temp. Dew Point Humidity Pressure Visibility Wind Dir Wind Speed Gust Speed Precip Events Conditions
12:15 AM 78.8 °F 71.6 °F 78% 30.05 in 7.0 mi SE 9.2 mph - N/A   Clear
12:35 AM 78.8 °F 71.6 °F 78% 30.05 in 7.0 mi SE 8.1 mph - N/A   Clear
12:55 AM 78.8 °F 73.4 °F 83% 30.05 in 7.0 mi South 5.8 mph - N/A   Clear
1:15 AM 78.8 °F 73.4 °F 83% 30.06 in 7.0 mi South 6.9 mph - N/A   Clear
1:35 AM 78.8 °F 73.4 °F 83% 30.05 in 7.0 mi SSW 5.8 mph - N/A   Clear
1:55 AM 78.8 °F 73.4 °F 83% 30.05 in 7.0 mi SW 5.8 mph - N/A   Partly Cloudy
2:15 AM 78.8 °F 73.4 °F 83% 30.05 in 7.0 mi SW 4.6 mph - N/A   Mostly Cloudy
2:35 AM 78.8 °F 73.4 °F 83% 30.05 in 7.0 mi WSW 5.8 mph - N/A   Mostly Cloudy
2:55 AM 78.8 °F 73.4 °F 83% 30.05 in 8.0 mi West 5.8 mph - N/A   Scattered Clouds
3:15 AM 78.8 °F 73.4 °F 83% 30.06 in 8.0 mi Calm Calm - N/A   Partly Cloudy
3:35 AM 78.8 °F 73.4 °F 83% 30.05 in 8.0 mi WNW 8.1 mph - N/A   Mostly Cloudy
3:55 AM 78.8 °F 73.4 °F 83% 30.07 in 8.0 mi NNW 10.4 mph - N/A   Mostly Cloudy
4:15 AM 73.4 °F 68.0 °F 83% 30.08 in 3.0 mi North 17.3 mph 25.3 mph N/A   Haze
4:35 AM 73.4 °F 66.2 °F 78% 30.08 in 6.0 mi North 15.0 mph 21.9 mph N/A   Haze
4:55 AM 73.4 °F 60.8 °F 65% 30.09 in 8.0 mi North 19.6 mph 26.5 mph N/A   Overcast
5:15 AM 73.4 °F 59.0 °F 61% 30.10 in 10.0 mi North 19.6 mph 26.5 mph N/A   Overcast
5:35 AM 73.4 °F 59.0 °F 61% 30.11 in 9.0 mi North 18.4 mph 26.5 mph N/A   Overcast
5:55 AM 71.6 °F 59.0 °F 64% 30.13 in 8.0 mi North 18.4 mph 26.5 mph N/A   Overcast
6:15 AM 71.6 °F 59.0 °F 64% 30.13 in 8.0 mi North 21.9 mph 28.8 mph N/A   Overcast
6:35 AM 71.6 °F 59.0 °F 64% 30.14 in 7.0 mi North 20.7 mph 29.9 mph N/A   Overcast
6:55 AM 71.6 °F 59.0 °F 64% 30.15 in 7.0 mi North 19.6 mph 31.1 mph N/A   Overcast
7:15 AM 71.6 °F 57.2 °F 60% 30.16 in 6.0 mi North 21.9 mph 29.9 mph N/A   Haze
7:35 AM 69.8 °F 57.2 °F 64% 30.18 in 1.8 mi North 21.9 mph 29.9 mph N/A   Haze
7:55 AM 69.8 °F 55.4 °F 60% 30.20 in 1.2 mi North 17.3 mph 31.1 mph N/A   Haze
8:15 AM 69.8 °F 55.4 °F 60% 30.21 in 1.5 mi North 20.7 mph 35.7 mph N/A   Haze
8:35 AM 69.8 °F 57.2 °F 64% 30.21 in 1.2 mi NNE 21.9 mph 31.1 mph N/A   Haze
8:55 AM 69.8 °F 55.4 °F 60% 30.24 in 1.5 mi NNE 20.7 mph 28.8 mph N/A   Haze
9:15 AM 69.8 °F 55.4 °F 60% 30.25 in 3.0 mi North 18.4 mph 28.8 mph N/A   Haze
9:35 AM 69.8 °F 55.4 °F 60% 30.26 in 2.5 mi North 21.9 mph 28.8 mph N/A   Haze
9:55 AM 69.8 °F 57.2 °F 64% 30.27 in 1.8 mi North 20.7 mph 29.9 mph N/A   Haze
10:15 AM 69.8 °F 55.4 °F 60% 30.29 in 2.0 mi NNE 18.4 mph 28.8 mph N/A   Haze
10:35 AM 69.8 °F 53.6 °F 56% 30.30 in 1.5 mi North 18.4 mph 29.9 mph N/A   Haze
10:55 AM 69.8 °F 51.8 °F 53% 30.30 in 2.5 mi NNE 13.8 mph 28.8 mph N/A   Haze
11:15 AM 69.8 °F 51.8 °F 53% 30.30 in 2.5 mi North 15.0 mph 25.3 mph N/A   Haze
11:35 AM 69.8 °F 50.0 °F 49% 30.29 in 2.5 mi NNE 17.3 mph 28.8 mph N/A   Haze
11:55 AM 69.8 °F 50.0 °F 49% 30.28 in 2.5 mi NNE 17.3 mph 31.1 mph N/A   Haze
12:15 PM 69.8 °F 50.0 °F 49% 30.27 in 2.5 mi NNE 17.3 mph 28.8 mph N/A   Haze
12:35 PM 69.8 °F 51.8 °F 53% 30.26 in 1.5 mi NNE 18.4 mph 27.6 mph N/A   Haze
12:50 PM 69.8 °F 51.8 °F 53% 30.27 in 5.0 mi North 18.4 mph - N/A   Haze
1:15 PM 68.0 °F 51.8 °F 56% 30.27 in 6.0 mi North 17.3 mph 25.3 mph N/A   Haze
1:35 PM 68.0 °F 51.8 °F 56% 30.27 in 9.0 mi North 15.0 mph 23.0 mph N/A   Mostly Cloudy
1:55 PM 69.8 °F 51.8 °F 53% 30.28 in 7.0 mi NNE 11.5 mph 21.9 mph N/A   Partly Cloudy
2:15 PM - - N/A% 30.28 in - North 13.8 mph - N/A   Unknown
2:35 PM 69.8 °F 51.8 °F 53% 30.27 in 7.0 mi North 15.0 mph 20.7 mph N/A   Unknown
2:55 PM 68.0 °F 53.6 °F 60% 30.28 in 7.0 mi North 11.5 mph 21.9 mph N/A   Partly Cloudy
3:15 PM 68.0 °F 53.6 °F 60% 30.29 in 8.0 mi North 10.4 mph 20.7 mph N/A   Scattered Clouds
3:35 PM 68.0 °F 55.4 °F 64% 30.28 in 7.0 mi North 16.1 mph 27.6 mph N/A   Mostly Cloudy
3:55 PM 68.0 °F 53.6 °F 60% 30.28 in 6.0 mi North 13.8 mph 20.7 mph N/A   Haze
4:15 PM 68.0 °F 53.6 °F 60% 30.28 in 7.0 mi North 12.7 mph 21.9 mph N/A   Scattered Clouds
4:35 PM 68.0 °F 53.6 °F 60% 30.28 in 8.0 mi North 13.8 mph 20.7 mph N/A   Scattered Clouds
4:55 PM 68.0 °F 51.8 °F 56% 30.29 in 7.0 mi North 9.2 mph 20.7 mph N/A   Mostly Cloudy
5:15 PM 68.0 °F 51.8 °F 56% 30.29 in 5.0 mi North 12.7 mph 19.6 mph N/A   Haze
5:35 PM 68.0 °F 51.8 °F 56% 30.30 in 9.0 mi North 11.5 mph 17.3 mph N/A   Mostly Cloudy
5:55 PM 68.0 °F 51.8 °F 56% 30.31 in 8.0 mi North 9.2 mph 18.4 mph N/A   Scattered Clouds
6:15 PM 68.0 °F 50.0 °F 52% 30.31 in 7.0 mi North 11.5 mph 18.4 mph N/A   Scattered Clouds
6:35 PM 69.8 °F 50.0 °F 49% 30.32 in 7.0 mi NNE 10.4 mph 18.4 mph N/A   Mostly Cloudy
6:55 PM 69.8 °F 50.0 °F 49% 30.32 in 9.0 mi North 11.5 mph 20.7 mph N/A   Overcast
7:35 PM 69.8 °F 48.2 °F 46% 30.32 in 8.0 mi North 11.5 mph 19.6 mph N/A   Unknown
7:55 PM 69.8 °F 48.2 °F 46% 30.32 in 9.0 mi NNE 12.7 mph 19.6 mph N/A   Unknown
8:15 PM 69.8 °F 48.2 °F 46% 30.33 in 9.0 mi NNE 10.4 mph 18.4 mph N/A   Unknown
8:35 PM 69.8 °F 50.0 °F 49% 30.33 in 10.0 mi North 10.4 mph - N/A   Unknown
8:55 PM 69.8 °F 48.2 °F 46% 30.34 in 9.0 mi North 9.2 mph - N/A   Unknown
9:15 PM 69.8 °F 50.0 °F 49% 30.33 in 10.0 mi NNE 10.4 mph 18.4 mph N/A   Unknown
9:35 PM 69.8 °F 51.8 °F 53% 30.34 in 9.0 mi Variable 5.8 mph 21.9 mph N/A   Unknown
9:55 PM 69.8 °F 50.0 °F 49% 30.35 in 9.0 mi NNE 8.1 mph 16.1 mph N/A   Unknown
10:15 PM 69.8 °F 50.0 °F 49% 30.35 in 6.0 mi NNE 9.2 mph 15.0 mph N/A   Haze
10:35 PM 69.8 °F 50.0 °F 49% 30.35 in 9.0 mi NNE 12.7 mph 18.4 mph N/A   Unknown
10:55 PM 68.0 °F 53.6 °F 60% 30.34 in 8.0 mi North 11.5 mph - N/A   Unknown
11:15 PM 68.0 °F 53.6 °F 60% 30.33 in 9.0 mi North 11.5 mph 17.3 mph N/A   Unknown
11:35 PM 68.0 °F 51.8 °F 56% 30.33 in 8.0 mi NNW 10.4 mph 19.6 mph N/A   Unknown
11:55 PM 68.0 °F 51.8 °F 56% 30.32 in 8.0 mi North 12.7 mph 18.4 mph N/A   Unknown